TimeAST,TemperatureF,Dew PointF,Humidity,Sea Level PressureIn,VisibilityMPH,Wind Direction,Wind SpeedMPH,Gust SpeedMPH,PrecipitationIn,Events,Conditions,WindDirDegrees,DateUTC
12:00 AM,75.2,59.0,57,30.12,-9999.0,NW,6.9,-,N/A,,Clear,320,2012-11-16 21:00:00
12:30 AM,75.2,57.2,53,30.09,-9999.0,NNW,8.1,-,N/A,,Clear,330,2012-11-16 21:30:00
1:00 AM,75.2,57.2,53,30.09,-9999.0,NW,5.8,-,N/A,,Clear,320,2012-11-16 22:00:00
1:30 AM,75.2,57.2,53,30.09,-9999.0,NW,6.9,-,N/A,,Clear,320,2012-11-16 22:30:00
2:00 AM,75.2,57.2,53,30.09,-9999.0,NW,5.8,-,N/A,,Clear,320,2012-11-16 23:00:00
2:30 AM,73.4,57.2,57,30.09,-9999.0,WNW,5.8,-,N/A,,Clear,300,2012-11-16 23:30:00
3:00 AM,74,57,45,30.11,7,NW,5.8,,,,,310,2012-11-17 00:00:00
3:00 AM,73.4,57.2,57,30.09,-9999.0,NW,5.8,-,N/A,,Clear,310,2012-11-17 00:00:00
3:30 AM,73.4,57.2,57,30.09,-9999.0,NW,6.9,-,N/A,,Clear,310,2012-11-17 00:30:00
4:00 AM,73.4,57.2,57,30.09,-9999.0,NW,6.9,-,N/A,,Clear,310,2012-11-17 01:00:00
5:00 AM,73.4,57.2,57,30.09,-9999.0,WNW,6.9,-,N/A,,Clear,300,2012-11-17 02:00:00
5:30 AM,73.4,57.2,57,30.12,-9999.0,NW,8.1,-,N/A,,Clear,310,2012-11-17 02:30:00
6:00 AM,73.4,55.4,53,30.12,-9999.0,NW,6.9,-,N/A,,Clear,310,2012-11-17 03:00:00
6:30 AM,73.4,55.4,53,30.12,-9999.0,NW,6.9,-,N/A,,Clear,310,2012-11-17 03:30:00
7:00 AM,73.4,57.2,57,30.15,-9999.0,WNW,6.9,-,N/A,,Clear,300,2012-11-17 04:00:00
7:30 AM,75.2,57.2,53,30.15,-9999.0,NW,6.9,-,N/A,,Clear,310,2012-11-17 04:30:00
8:00 AM,77.0,57.2,50,30.15,-9999.0,NW,8.1,-,N/A,,Clear,310,2012-11-17 05:00:00
8:30 AM,77.0,59.0,54,30.15,-9999.0,NW,6.9,-,N/A,,Clear,320,2012-11-17 05:30:00
9:00 AM,77,57,40,30.18,7,NW,8.1,,,,,310,2012-11-17 06:00:00
9:00 AM,77.0,57.2,50,30.15,-9999.0,NW,8.1,-,N/A,,Clear,310,2012-11-17 06:00:00
9:30 AM,78.8,57.2,47,30.15,-9999.0,NW,9.2,-,N/A,,Clear,310,2012-11-17 06:30:00
10:00 AM,80.6,57.2,45,30.15,-9999.0,NW,10.4,-,N/A,,Clear,320,2012-11-17 07:00:00
10:30 AM,80.6,57.2,45,30.15,-9999.0,NNW,12.7,-,N/A,,Clear,330,2012-11-17 07:30:00
11:00 AM,80.6,57.2,45,30.12,-9999.0,NW,10.4,-,N/A,,Clear,320,2012-11-17 08:00:00
11:30 AM,80.6,55.4,42,30.12,-9999.0,NW,10.4,-,N/A,,Clear,320,2012-11-17 08:30:00
12:00 PM,82.4,55.4,39,30.09,-9999.0,NW,10.4,-,N/A,,Clear,320,2012-11-17 09:00:00
12:30 PM,82.4,53.6,37,30.09,-9999.0,NNW,12.7,-,N/A,,Clear,330,2012-11-17 09:30:00
1:00 PM,84.2,53.6,35,30.09,-9999.0,NNW,13.8,-,N/A,,Clear,330,2012-11-17 10:00:00
1:30 PM,84.2,55.4,37,30.06,-9999.0,NNW,12.7,-,N/A,,Clear,340,2012-11-17 10:30:00
2:00 PM,84.2,53.6,35,30.06,-9999.0,NNW,11.5,23.0,N/A,,Clear,330,2012-11-17 11:00:00
2:30 PM,84.2,53.6,35,30.06,-9999.0,NNW,13.8,-,N/A,,Clear,340,2012-11-17 11:30:00
3:00 PM,83,51,23,30.08,7,NNW,15.0,,,,,340,2012-11-17 12:00:00
3:00 PM,82.4,51.8,35,30.06,-9999.0,NNW,15.0,-,N/A,,Clear,340,2012-11-17 12:00:00
3:30 PM,82.4,53.6,37,30.06,-9999.0,NNW,13.8,-,N/A,,Clear,340,2012-11-17 12:30:00
4:00 PM,82.4,53.6,37,30.06,-9999.0,NNW,16.1,-,N/A,,Clear,340,2012-11-17 13:00:00
4:30 PM,80.6,53.6,39,30.06,-9999.0,NNW,12.7,-,N/A,,Clear,340,2012-11-17 13:30:00
5:00 PM,78.8,55.4,44,30.06,-9999.0,NNW,13.8,-,N/A,,Clear,340,2012-11-17 14:00:00
5:30 PM,78.8,57.2,47,30.06,-9999.0,NNW,13.8,-,N/A,,Clear,340,2012-11-17 14:30:00
6:00 PM,78.8,57.2,47,30.09,-9999.0,NNW,10.4,-,N/A,,Clear,330,2012-11-17 15:00:00
6:30 PM,77.0,59.0,54,30.09,-9999.0,NNW,10.4,-,N/A,,Clear,330,2012-11-17 15:30:00
7:00 PM,77.0,59.0,54,30.09,-9999.0,NNW,10.4,-,N/A,,Clear,330,2012-11-17 16:00:00
7:30 PM,77.0,59.0,54,30.09,-9999.0,NNW,9.2,-,N/A,,Clear,330,2012-11-17 16:30:00
8:00 PM,77.0,59.0,54,30.09,-9999.0,NNW,9.2,-,N/A,,Clear,330,2012-11-17 17:00:00
8:30 PM,77.0,59.0,54,30.09,-9999.0,NNW,9.2,-,N/A,,Clear,330,2012-11-17 17:30:00
9:00 PM,76,58,44,30.12,7,NNW,11.5,,,,Clear,340,2012-11-17 18:00:00
9:00 PM,75.2,59.0,57,30.09,-9999.0,NNW,11.5,-,N/A,,Clear,340,2012-11-17 18:00:00
9:30 PM,75.2,59.0,57,30.09,-9999.0,NW,10.4,-,N/A,,Clear,320,2012-11-17 18:30:00
10:00 PM,75.2,59.0,57,30.09,-9999.0,NW,8.1,-,N/A,,Clear,320,2012-11-17 19:00:00
10:30 PM,75.2,59.0,57,30.09,-9999.0,NW,5.8,-,N/A,,Clear,310,2012-11-17 19:30:00
11:00 PM,75.2,59.0,57,30.09,-9999.0,NW,5.8,-,N/A,,Clear,320,2012-11-17 20:00:00
11:30 PM,75.2,59.0,57,30.06,-9999.0,NW,5.8,-,N/A,,Clear,320,2012-11-17 20:30:00